QPF
-0.00 -0.00 -0.00 0.00 0.00 0.00 0.00 0.00 0.00 0.00 0.00 0.00 0.00 0.00 0.00 0.00 0.00 0.00 0.00 0.00 0.00 0.00 0.00 0.00 0.00 0.00 0.00 0.00 0.00 0.00 0.00 0.00 0.00 0.00 0.00 0.00 0.00 0.00 0.00 0.00 -0.00 0.00 0.00 0.00 0.00 -0.00 0.00 0.00 0.00 0.00 0.00 0.00 0.00 0.00 0.00 0.00 0.00 0.00 0.00 0.00 0.00 0.00 0.00
0.00 -0.00 0.00 -0.00 0.00 0.00 0.00 0.00 0.00 0.00 0.00 0.00 0.00 0.00 0.00 0.00 0.00 0.00 0.00 0.00 0.00 0.00 0.00 0.00 0.00 0.00 0.00 0.00 0.00 0.00 0.00 0.00 0.00 0.00 0.00 0.00 0.00 0.00 0.00 0.00 0.00 0.00 0.00 0.00 0.00 0.00 0.00 0.00 0.00 0.00 0.00 0.00 0.00 0.00 0.00 0.00 0.00 0.00 0.00 0.00 0.00 0.00 0.00
0.00 0.00 0.00 0.00 0.00 0.00 0.00 0.00 0.00 0.00 0.00 0.00 0.00 0.00 0.00 0.00 0.00 0.00 0.00 0.00 0.00 0.00 0.00 0.00 0.00 0.00 0.00 0.00 0.00 0.00 0.00 0.00 0.00 0.00 0.00 0.00 0.00 0.00 -0.00 -0.00 0.00 0.00 0.00 -0.00 -0.00 0.00 0.00 0.00 0.00 0.00 0.00 0.00 0.00 0.00 0.00 0.00 0.00 0.00 0.00 0.00 0.00 0.00 0.00
0.00 -0.00 0.00 0.00 0.00 0.00 0.00 0.00 0.00 0.00 0.00 0.00 0.00 0.00 0.00 0.00 0.00 0.00 0.00 0.00 0.00 0.00 0.00 0.00 0.00 0.00 0.00 0.00 0.00 0.00 0.00 0.00 0.00 0.00 0.00 0.00 0.00 0.00 0.00 0.00 0.00 -0.00 0.00 0.00 0.00 0.00 0.00 0.00 0.00 0.00 0.00 0.00 0.00 0.00 0.00 0.00 0.00 0.00 0.00 0.00 0.00 0.00 0.00
0.00 0.00 -0.00 -0.00 0.00 0.00 0.00 0.00 0.00 0.00 0.00 0.00 0.00 0.00 0.00 0.00 0.00 0.00 0.00 0.00 0.00 0.00 0.00 0.00 0.00 0.00 0.00 0.00 0.00 0.00 0.00 0.00 0.00 0.00 0.00 0.00 0.00 0.00 0.00 0.00 -0.00 0.00 0.00 -0.00 0.00 -0.00 0.00 0.00 0.00 0.00 0.00 0.00 0.00 0.00 0.00 0.00 0.00 0.00 0.00 0.00 0.00 0.00 0.00
0.00 0.00 0.00 0.00 0.00 0.00 0.00 0.00 0.00 0.00 0.00 0.00 0.00 0.00 0.00 0.00 0.00 0.00 0.00 0.00 0.00 0.00 0.00 0.00 0.00 0.00 0.00 0.00 0.00 0.00 0.00 0.00 0.00 0.00 0.00 0.00 0.00 0.00 0.00 0.00 -0.00 -0.00 0.00 -0.00 0.00 0.00 0.00 0.00 0.00 0.00 0.00 0.00 0.00 0.00 0.00 0.00 0.00 0.00 0.00 0.00 0.00 0.00 0.00
0.00 0.00 0.00 0.00 0.00 -0.00 0.00 0.00 0.00 0.00 0.00 0.00 0.00 0.00 0.00 0.00 0.00 0.00 0.00 0.00 0.00 0.00 0.00 0.00 0.00 0.00 0.00 0.00 0.00 0.00 0.00 0.00 0.00 0.00 0.00 0.00 0.00 0.00 0.00 0.00 0.00 0.00 0.00 0.00 0.00 0.00 0.00 0.00 0.00 0.00 0.00 0.00 0.00 -0.00 -0.00 0.00 0.00 0.00 0.00 0.00 0.00 0.00 0.00
0.00 0.00 0.00 0.00 0.00 0.00 0.00 0.00 0.00 0.00 0.00 0.00 0.00 0.00 0.00 0.00 0.00 0.00 0.00 0.00 0.00 0.00 0.00 0.00 0.00 0.00 0.00 0.00 0.00 0.00 0.00 0.00 0.00 0.00 0.00 0.00 0.00 0.00 0.00 0.00 0.00 -0.00 0.00 0.00 0.00 0.00 0.00 0.00 -0.00 0.00 0.00 0.00 0.00 0.00 0.00 0.00 0.00 0.00 0.00 0.00 0.00 0.00 0.00
0.00 0.00 0.00 0.00 0.00 0.00 0.00 0.00 0.00 0.00 0.00 0.00 0.00 0.00 0.00 0.00 0.00 0.00 0.00 0.00 0.00 0.00 0.00 0.00 0.00 0.00 0.00 0.00 0.00 -0.00 0.00 0.00 0.00 0.00 -0.00 -0.00 -0.00 0.00 0.00 0.00 0.00 0.00 0.00 0.00 -0.00 0.00 0.00 0.00 -0.00 -0.00 0.00 0.00 0.00 0.00 0.00 -0.00 0.00 -0.00 0.00 0.00 0.00 0.00 0.00
0.00 0.00 0.00 0.00 -0.00 0.00 0.00 0.00 0.00 0.00 0.00 0.00 0.00 0.00 0.00 0.00 0.00 0.00 0.00 0.00 0.00 0.00 0.00 0.00 0.00 0.00 0.00 -0.00 -0.00 -0.00 0.00 0.00 -0.00 -0.00 0.00 0.00 0.00 0.00 0.00 -0.00 -0.00 0.00 -0.00 0.00 0.00 0.00 0.00 0.00 0.00 -0.00 0.00 0.00 -0.00 0.00 0.00 -0.00 0.00 0.00 0.00 0.00 0.00 0.00 0.00
0.00 0.00 0.00 0.00 0.00 0.00 0.00 -0.00 -0.00 0.00 0.00 0.00 0.00 0.00 0.00 0.00 0.00 0.00 0.00 0.00 0.00 0.00 0.00 0.00 0.00 0.00 0.00 0.00 0.00 0.00 0.00 0.00 0.00 0.00 -0.00 0.00 0.00 0.00 0.00 0.00 0.00 0.00 0.00 0.00 -0.00 0.00 0.00 0.00 0.00 0.00 0.00 0.00 0.00 0.00 0.00 0.00 0.00 -0.00 0.00 0.00 0.00 0.00 0.00
0.00 0.00 0.00 0.00 0.00 0.00 0.00 0.00 0.00 0.00 0.00 0.00 0.00 0.00 0.00 0.00 0.00 0.00 0.00 0.00 0.00 0.00 0.00 -0.00 0.00 0.00 0.00 0.00 -0.00 0.00 0.00 0.00 0.00 0.00 0.00 0.00 0.00 0.00 0.00 0.00 -0.00 0.00 0.00 -0.00 -0.00 -0.00 -0.00 -0.00 0.00 -0.00 0.00 0.00 -0.00 0.00 0.00 0.00 -0.00 0.00 -0.00 0.00 0.00 0.00 0.00
0.00 0.00 0.00 0.00 0.00 0.00 0.00 0.00 0.00 0.00 0.00 0.00 0.00 0.00 0.00 0.00 0.00 0.00 0.00 0.00 0.00 0.00 0.00 -0.00 0.00 0.00 0.00 0.00 -0.00 -0.00 -0.00 0.00 -0.00 0.00 0.00 -0.00 0.00 -0.00 -0.00 -0.00 0.00 0.00 0.00 -0.00 0.00 -0.00 0.00 0.00 -0.00 -0.00 0.00 -0.00 0.00 0.00 -0.00 0.00 0.00 0.00 0.00 -0.00 -0.00 0.00 0.00
0.00 0.00 0.00 0.00 0.00 0.00 0.00 0.00 0.00 0.00 0.00 0.00 0.00 0.00 0.00 0.00 0.00 0.00 0.00 0.00 0.00 0.00 0.00 -0.00 0.00 0.00 0.00 0.00 0.00 0.00 -0.00 0.00 0.00 0.00 0.00 0.00 0.00 0.00 0.00 0.00 0.00 -0.00 0.00 0.00 0.00 0.00 -0.00 0.00 0.00 0.00 0.00 -0.00 0.00 0.00 0.00 0.00 0.00 0.00 -0.00 -0.00 0.00 0.00 0.00
0.00 0.00 0.00 0.00 0.00 0.00 0.00 0.00 0.00 0.00 0.00 0.00 0.00 0.00 0.00 0.00 0.00 0.00 0.00 0.00 0.00 0.00 0.00 0.00 0.00 0.00 0.00 0.00 0.00 0.00 0.00 0.00 0.00 0.00 0.00 0.00 -0.00 0.00 0.00 0.00 0.00 0.00 0.00 -0.00 0.00 -0.00 0.00 0.00 0.00 -0.00 -0.00 0.00 0.00 0.00 0.00 0.00 0.00 0.00 0.00 -0.00 0.00 0.00 -0.00
-0.00 0.00 0.00 0.00 0.00 0.00 0.00 0.00 0.00 0.00 0.00 0.00 0.00 0.00 0.00 0.00 0.00 0.00 0.00 0.00 0.00 0.00 0.00 0.00 0.00 0.00 -0.00 0.00 -0.00 0.00 0.00 0.00 0.00 0.00 0.00 0.00 0.00 -0.00 0.00 0.00 0.00 0.00 0.00 0.00 -0.00 -0.00 0.00 0.00 -0.00 0.00 0.00 0.00 0.00 0.00 0.00 -0.00 0.00 -0.00 0.00 0.00 0.00 0.00 0.00
0.00 0.00 0.00 0.00 0.00 0.00 0.00 0.00 0.00 0.00 0.00 0.00 0.00 0.00 0.00 0.00 0.00 0.00 0.00 0.00 0.00 0.00 0.00 0.00 0.00 0.00 0.00 0.00 0.00 -0.00 -0.00 -0.00 0.00 0.00 0.00 0.00 0.00 0.00 0.00 -0.00 0.00 0.00 0.00 0.00 0.00 0.00 0.00 0.00 -0.00 -0.00 -0.00 0.00 0.00 -0.00 0.00 0.00 -0.00 0.00 0.00 0.00 0.00 0.00 0.00
0.00 0.00 -0.00 0.00 0.00 -0.00 0.00 0.00 0.00 0.00 0.00 0.00 0.00 0.00 0.00 0.00 0.00 0.00 0.00 0.00 0.00 0.00 0.00 0.00 0.00 0.00 0.00 0.00 0.00 0.00 0.00 -0.00 -0.00 0.00 -0.00 0.00 0.00 0.00 0.00 0.00 0.00 0.00 0.00 0.00 0.00 0.00 -0.00 0.00 0.00 -0.00 0.00 0.00 0.00 0.00 0.00 0.00 0.00 0.00 0.00 0.00 -0.00 0.00 0.00
0.00 -0.00 0.00 -0.00 -0.00 0.00 0.00 0.00 0.00 0.00 0.00 0.00 0.00 0.00 0.00 0.00 0.00 0.00 0.00 0.00 0.00 0.00 0.00 0.00 0.00 0.00 0.00 0.00 0.00 0.00 0.00 0.00 0.00 0.00 0.00 0.00 0.00 0.00 0.00 0.00 0.00 0.00 0.00 0.00 0.00 0.00 0.00 0.00 -0.00 0.00 0.00 0.00 0.00 0.00 -0.00 0.00 0.00 0.00 0.00 0.00 0.00 0.00 0.00
0.00 0.00 0.00 0.00 0.00 0.00 0.00 0.00 0.00 0.00 0.00 0.00 0.00 0.00 0.00 0.00 0.00 0.00 0.00 0.00 0.00 0.00 0.00 0.00 0.00 0.00 0.00 0.00 0.00 0.00 0.00 0.00 0.00 0.00 0.00 0.00 0.00 0.00 0.00 0.00 0.00 0.00 0.00 0.00 0.00 0.00 0.00 0.00 0.00 0.00 0.00 0.00 0.00 -0.00 -0.00 0.00 -0.00 -0.00 0.00 0.00 0.00 0.00 0.00
0.00 0.00 0.00 0.00 0.00 0.00 0.00 0.00 0.00 0.00 0.00 0.00 0.00 0.00 0.00 0.00 0.00 0.00 0.00 0.00 0.00 0.00 0.00 0.00 0.00 0.00 0.00 -0.00 -0.00 0.00 0.00 0.00 0.00 0.00 0.00 0.00 0.00 0.00 0.00 0.00 0.00 0.00 0.00 0.00 0.00 -0.00 0.00 0.00 0.00 0.00 -0.00 0.00 -0.00 -0.00 0.00 0.00 0.00 0.00 0.00 0.00 -0.00 -0.00 0.00
0.00 0.00 0.00 0.00 0.00 0.00 0.00 0.00 0.00 0.00 0.00 0.00 0.00 0.00 0.00 0.00 0.00 0.00 0.00 0.00 0.00 0.00 0.00 0.00 0.00 0.00 0.00 -0.00 0.00 0.00 0.00 0.00 0.00 0.00 0.00 0.00 0.00 0.00 0.00 0.00 0.00 0.00 0.00 0.00 0.00 0.00 0.00 0.00 0.00 0.00 0.00 -0.00 -0.00 0.00 0.00 0.00 -0.00 -0.00 -0.00 -0.00 -0.00 -0.00 -0.00
0.00 0.00 0.00 0.00 0.00 0.00 0.00 0.00 0.00 0.00 0.00 0.00 0.00 0.00 0.00 0.00 0.00 0.00 0.00 0.00 0.00 0.00 0.00 0.00 0.00 0.00 0.00 0.00 0.00 0.00 0.00 0.00 0.00 0.00 -0.00 0.00 0.00 -0.00 0.00 0.00 0.00 0.00 0.00 -0.00 0.00 0.00 0.00 0.00 0.00 -0.00 0.00 0.00 -0.00 0.00 -0.00 0.00 0.00 -0.00 -0.00 -0.00 0.00 -0.00 0.00
0.00 0.00 0.00 0.00 0.00 0.00 0.00 0.00 0.00 0.00 0.00 0.00 0.00 0.00 0.00 0.00 0.00 0.00 0.00 0.00 0.00 0.00 0.00 0.00 0.00 0.00 0.00 -0.00 -0.00 0.00 0.00 -0.00 -0.00 0.00 0.00 0.00 0.00 0.00 -0.00 0.00 0.00 0.00 0.00 0.00 0.00 -0.00 0.00 -0.00 0.00 0.00 0.00 0.00 -0.00 -0.00 0.00 0.00 0.00 0.00 0.00 0.00 0.00 0.00 -0.00
0.00 0.00 0.00 0.00 0.00 0.00 0.00 0.00 0.00 0.00 0.00 0.00 0.00 0.00 0.00 0.00 0.00 0.00 0.00 0.00 0.00 0.00 0.00 0.00 0.00 0.00 0.00 0.00 0.00 0.00 -0.00 0.00 0.00 0.00 0.00 0.00 -0.00 0.00 0.00 0.00 0.00 0.00 0.00 0.00 0.00 0.00 0.00 0.00 0.00 0.00 0.00 0.00 -0.00 0.00 -0.00 -0.00 0.00 0.00 0.00 0.00 0.00 0.00 0.00
0.00 0.00 0.00 0.00 0.00 0.00 0.00 0.00 0.00 0.00 0.00 0.00 0.00 0.00 0.00 0.00 0.00 0.00 0.00 0.00 0.00 0.00 0.00 0.00 0.00 0.00 0.00 0.00 0.00 0.00 0.00 0.00 0.00 0.00 0.00 -0.00 0.00 0.00 0.00 0.00 -0.00 0.00 0.00 0.00 0.00 -0.00 0.00 0.00 0.00 0.00 0.00 0.00 0.00 0.00 0.00 0.00 0.00 0.00 0.00 0.00 0.00 0.00 0.00
0.00 0.00 0.00 0.00 0.00 0.00 0.00 0.00 0.00 0.00 0.00 0.00 0.00 0.00 0.00 0.00 0.00 0.00 0.00 0.00 0.00 0.00 0.00 0.00 -0.00 0.00 0.00 0.00 0.00 0.00 0.00 0.00 0.00 0.00 0.00 0.00 0.00 0.00 0.00 0.00 0.00 0.00 0.00 0.00 -0.00 0.00 0.00 0.00 0.00 0.00 0.00 -0.00 -0.00 0.00 0.00 0.00 0.00 0.00 0.00 0.00 -0.00 -0.00 -0.00
0.00 0.00 0.00 0.00 0.00 0.00 0.00 0.00 0.00 0.00 0.00 0.00 0.00 0.00 0.00 -0.00 0.00 0.00 0.00 0.00 0.00 0.00 0.00 0.00 0.00 0.00 0.00 0.00 0.00 0.00 0.00 0.00 0.00 0.00 0.00 0.00 0.00 0.00 -0.00 0.00 0.00 -0.00 0.00 -0.00 -0.00 0.00 0.00 0.00 0.00 0.00 0.00 0.00 0.00 0.00 -0.00 0.00 0.00 0.00 0.00 0.00 0.00 0.00 0.00
0.00 0.00 0.00 0.00 0.00 0.00 0.00 0.00 0.00 0.00 0.00 0.00 0.00 0.00 0.00 0.00 0.00 -0.00 0.00 0.00 0.00 0.00 -0.00 -0.00 0.00 0.00 0.00 0.00 0.00 0.00 0.00 -0.00 0.00 0.00 0.00 0.00 0.00 -0.00 0.00 0.00 0.00 0.00 -0.00 0.00 -0.00 0.00 0.00 0.00 0.00 0.00 0.00 0.00 0.00 0.00 0.00 0.00 0.00 0.00 0.00 0.00 0.00 0.00 0.00
0.01 0.00 0.00 0.00 0.00 0.00 0.00 0.00 0.00 0.00 0.00 0.00 0.00 0.00 -0.00 0.00 0.00 0.00 0.00 0.00 0.00 -0.00 0.00 -0.00 0.00 0.00 0.00 0.00 0.00 0.00 0.00 0.00 -0.00 0.00 0.00 -0.00 0.00 -0.00 0.00 -0.00 -0.00 0.00 -0.00 0.00 0.00 0.00 0.00 0.00 0.00 0.00 0.00 0.00 0.01 0.01 0.00 0.00 0.00 0.00 0.00 0.00 -0.00 0.00 0.00
0.01 0.01 0.01 0.01 0.00 0.00 0.00 0.00 0.00 0.00 0.00 0.00 0.00 0.00 0.00 0.00 0.00 0.00 0.00 0.00 0.00 0.00 0.00 0.00 0.00 0.00 0.00 0.00 0.00 -0.00 0.00 0.00 0.00 0.00 0.00 0.00 -0.00 -0.00 0.00 -0.00 -0.00 0.00 0.00 0.00 0.00 0.00 0.00 0.00 0.00 0.00 0.00 0.00 0.00 0.00 0.00 0.01 0.00 0.00 0.00 -0.00 0.00 0.00 0.00
0.01 0.01 0.01 0.01 0.01 0.00 0.00 0.00 0.00 0.00 0.00 0.00 0.00 0.00 0.00 0.00 0.00 0.00 0.00 0.00 0.00 0.00 -0.00 0.00 0.00 0.00 -0.00 -0.00 0.00 0.00 0.00 0.00 0.00 -0.00 0.00 -0.00 0.00 0.00 0.00 0.00 0.00 -0.00 -0.00 -0.00 0.00 0.00 0.00 0.00 0.00 0.00 0.00 0.00 0.00 0.00 0.00 0.00 0.00 0.00 0.00 0.00 0.01 0.03 0.04
0.01 0.01 0.01 0.01 0.01 0.01 0.00 0.00 0.00 0.00 0.00 0.00 0.00 0.00 0.00 0.00 0.00 0.00 0.00 0.00 0.00 0.00 -0.00 0.00 0.00 -0.00 0.00 0.00 0.00 0.00 0.00 0.00 0.00 0.00 0.00 0.00 -0.00 0.00 -0.00 0.00 0.00 0.00 0.00 0.00 0.00 0.00 0.00 0.00 0.00 0.00 0.00 0.00 0.00 0.01 0.00 0.00 0.02 0.02 0.02 0.04 0.01 0.05 0.08
0.01 0.01 0.01 0.01 0.01 0.01 0.01 0.00 0.00 0.00 0.00 0.00 0.00 0.00 0.00 0.00 0.00 0.00 0.00 0.00 0.00 0.00 0.00 0.00 0.00 0.00 0.00 -0.00 0.00 0.00 0.00 0.00 0.00 0.00 -0.00 0.00 0.00 0.00 0.00 0.00 0.00 0.00 0.00 -0.00 0.00 0.00 0.00 0.00 0.00 0.00 0.00 0.00 0.01 0.02 0.01 0.00 0.01 0.00 0.00 0.01 0.01 0.01 0.05
0.01 0.01 0.01 0.01 0.01 0.01 0.01 0.00 0.00 0.01 0.00 0.00 0.01 0.00 0.00 0.00 0.00 0.00 0.00 0.00 0.00 0.00 0.00 0.00 0.00 0.00 0.00 0.00 0.00 0.00 -0.00 0.00 0.00 0.00 0.00 0.00 0.00 0.00 0.00 0.00 0.00 0.00 0.00 0.00 0.00 -0.00 0.00 0.00 -0.00 0.00 0.00 0.00 0.00 0.00 0.00 0.00 0.00 0.01 0.24 1.20 1.76 2.08 2.11
0.00 0.00 0.00 0.01 0.01 0.01 0.01 0.01 0.01 0.00 0.01 0.01 0.01 0.01 0.00 0.00 0.00 0.00 0.00 0.00 0.00 0.00 0.00 -0.00 0.00 0.00 0.00 0.00 0.00 0.00 0.00 0.00 0.00 0.00 -0.00 0.00 0.00 0.00 0.00 0.00 0.00 0.00 0.00 0.00 0.00 0.00 0.00 0.00 0.00 0.00 0.00 0.00 0.00 -0.00 0.00 0.01 0.03 0.13 0.64 0.65 0.58 0.38 0.43
0.01 0.00 0.00 0.00 0.01 0.01 0.01 0.01 0.01 0.01 0.01 0.01 0.01 0.01 0.00 0.00 0.00 0.00 0.00 0.00 0.00 -0.00 0.00 0.00 0.00 0.00 0.00 0.00 -0.00 0.00 0.00 0.00 0.00 0.00 0.00 -0.00 -0.00 0.00 0.00 -0.00 0.00 0.00 0.00 0.00 0.00 0.00 0.00 0.00 0.01 0.00 0.00 0.00 0.01 0.00 0.01 0.00 0.00 0.16 0.38 0.16 0.03 0.11 0.13
0.00 0.00 0.00 0.00 0.00 0.01 0.01 0.01 0.01 0.01 0.01 0.01 0.01 0.01 0.01 0.00 0.00 0.00 0.00 0.00 0.00 0.00 -0.00 0.00 0.00 -0.00 0.00 0.00 0.00 0.00 0.00 0.00 0.00 0.00 0.00 0.00 0.00 0.00 0.00 0.00 0.00 0.00 0.00 0.00 0.00 0.00 0.00 0.00 0.00 0.00 0.00 0.00 0.00 0.00 0.00 0.00 0.00 0.01 0.23 0.33 0.35 1.24 1.28
MSLP
1002.70 1003.34 1003.54 1003.66 1004.10 1004.26 1004.46 1004.66 1004.86 1005.18 1005.50 1005.98 1006.22 1006.46 1006.82 1007.18 1007.58 1007.90 1008.34 1008.74 1009.30 1009.82 1009.98 1010.34 1010.70 1010.98 1011.26 1011.42 1011.54 1011.74 1011.94 1012.26 1012.46 1012.82 1013.06 1013.22 1013.38 1013.66 1013.94 1014.06 1014.38 1014.58 1014.66 1014.90 1014.98 1015.10 1015.06 1015.18 1015.38 1015.54 1015.70 1015.90 1016.14 1016.34 1016.62 1016.86 1017.10 1017.26 1017.42 1017.66 1017.94 1018.22 1018.42
1002.58 1002.58 1002.66 1002.94 1003.26 1003.42 1003.62 1003.86 1004.26 1004.54 1004.82 1005.10 1005.42 1005.82 1006.14 1006.54 1006.86 1007.26 1007.54 1007.94 1008.46 1008.90 1009.30 1009.70 1010.18 1010.46 1010.70 1010.90 1011.02 1011.30 1011.66 1011.82 1012.02 1012.30 1012.58 1012.90 1012.98 1013.10 1013.26 1013.62 1013.86 1014.10 1014.22 1014.30 1014.42 1014.54 1014.74 1014.90 1015.10 1015.34 1015.54 1015.70 1015.86 1015.98 1016.26 1016.54 1016.78 1017.02 1017.22 1017.50 1017.82 1018.10 1018.26
1001.86 1001.86 1002.06 1002.34 1002.46 1002.58 1002.78 1003.22 1003.66 1003.90 1004.14 1004.38 1004.66 1005.10 1005.46 1005.66 1005.82 1006.30 1006.86 1007.38 1007.94 1008.30 1008.70 1009.10 1009.46 1009.86 1010.14 1010.42 1010.74 1010.94 1011.14 1011.46 1011.78 1012.02 1012.26 1012.34 1012.50 1012.74 1012.94 1013.22 1013.46 1013.66 1013.74 1013.90 1014.06 1014.26 1014.38 1014.70 1014.78 1014.94 1015.18 1015.46 1015.62 1015.82 1015.98 1016.22 1016.46 1016.74 1016.94 1017.22 1017.58 1017.82 1018.10
1001.18 1001.14 1001.10 1001.02 1001.14 1001.38 1001.90 1002.38 1002.70 1002.94 1003.26 1003.58 1003.74 1003.90 1004.34 1004.70 1004.90 1005.42 1005.98 1006.46 1007.14 1007.66 1008.14 1008.30 1008.78 1009.22 1009.54 1009.98 1010.38 1010.62 1010.90 1011.06 1011.18 1011.42 1011.62 1011.82 1012.14 1012.34 1012.70 1012.90 1013.06 1013.22 1013.54 1013.62 1013.62 1013.86 1014.02 1014.26 1014.58 1014.74 1014.94 1015.18 1015.38 1015.50 1015.70 1015.86 1016.10 1016.42 1016.70 1017.02 1017.34 1017.50 1017.74
1000.58 1000.54 1000.86 1001.22 1001.30 1001.54 1001.74 1001.94 1002.06 1002.26 1002.34 1002.34 1002.70 1003.06 1003.26 1003.58 1004.22 1004.82 1005.42 1005.78 1006.22 1006.74 1006.82 1007.26 1007.74 1008.34 1008.86 1009.26 1009.70 1009.98 1010.22 1010.50 1010.78 1010.94 1011.14 1011.34 1011.58 1011.90 1012.26 1012.46 1012.62 1012.82 1012.90 1013.14 1013.34 1013.58 1013.82 1014.06 1014.30 1014.46 1014.66 1014.86 1015.10 1015.26 1015.46 1015.54 1015.78 1016.10 1016.46 1016.78 1017.18 1017.30 1017.50
1000.02 1000.50 1000.46 1000.34 1000.54 1000.70 1000.78 1000.82 1000.98 1001.26 1001.62 1002.02 1002.26 1002.58 1002.78 1003.18 1003.74 1004.34 1004.62 1005.22 1005.66 1005.90 1006.54 1007.14 1007.50 1007.82 1008.30 1008.50 1008.94 1009.30 1009.62 1009.94 1010.18 1010.46 1010.74 1010.94 1011.22 1011.50 1011.70 1011.90 1012.10 1012.34 1012.62 1012.70 1012.82 1013.10 1013.38 1013.66 1013.86 1014.06 1014.34 1014.46 1014.66 1014.90 1015.06 1015.30 1015.42 1015.70 1016.14 1016.54 1016.82 1016.98 1017.18
998.94 999.34 999.66 999.62 999.66 999.82 999.98 1000.18 1000.38 1000.54 1000.78 1001.06 1001.34 1001.74 1002.14 1002.66 1003.18 1003.46 1003.86 1004.42 1004.78 1005.54 1005.98 1006.42 1006.70 1007.14 1007.50 1007.86 1008.26 1008.70 1009.10 1009.38 1009.74 1010.02 1010.18 1010.46 1010.58 1010.94 1011.14 1011.34 1011.54 1011.74 1011.86 1012.18 1012.50 1012.62 1013.02 1013.26 1013.42 1013.58 1013.82 1014.06 1014.26 1014.50 1014.74 1014.98 1015.18 1015.34 1015.74 1016.22 1016.58 1016.70 1016.86
998.18 998.66 998.70 998.78 998.82 998.94 999.30 999.66 999.86 999.98 1000.34 1000.78 1001.38 1001.70 1002.10 1002.34 1002.74 1003.22 1003.54 1003.54 1003.90 1004.54 1005.18 1005.66 1006.18 1006.58 1006.94 1007.30 1007.58 1007.98 1008.26 1008.66 1008.94 1009.26 1009.58 1009.94 1010.18 1010.46 1010.62 1010.82 1011.06 1011.22 1011.58 1011.90 1011.98 1012.18 1012.50 1012.74 1012.86 1013.06 1013.34 1013.66 1013.90 1014.10 1014.30 1014.54 1014.78 1014.98 1015.34 1015.86 1016.22 1016.46 1016.54
997.74 998.06 998.26 998.34 998.54 998.62 998.78 998.98 999.22 999.54 1000.10 1000.46 1000.74 1000.98 1001.26 1001.70 1002.06 1002.30 1002.54 1002.90 1003.34 1003.86 1004.22 1004.46 1005.02 1005.50 1006.06 1006.58 1007.06 1007.38 1007.66 1008.06 1008.42 1008.66 1009.06 1009.42 1009.58 1009.82 1010.06 1010.30 1010.58 1010.74 1011.18 1011.38 1011.58 1011.70 1011.90 1012.14 1012.30 1012.58 1012.90 1013.22 1013.46 1013.74 1013.98 1014.14 1014.42 1014.58 1014.90 1015.34 1015.74 1016.06 1016.22
998.18 998.38 998.30 998.30 998.26 998.34 998.50 998.78 999.22 999.70 1000.18 1000.34 1000.54 1000.86 1000.98 1001.14 1001.38 1001.66 1002.02 1002.34 1002.66 1003.10 1003.26 1003.78 1004.30 1004.90 1005.50 1006.02 1006.46 1006.78 1007.30 1007.62 1007.78 1008.14 1008.46 1008.86 1008.94 1009.26 1009.42 1009.62 1009.94 1010.18 1010.58 1010.86 1011.02 1011.30 1011.38 1011.54 1011.82 1012.14 1012.46 1012.82 1013.10 1013.30 1013.58 1013.82 1014.06 1014.30 1014.50 1014.82 1015.18 1015.54 1015.82
998.22 998.22 998.46 998.50 998.50 998.42 998.54 998.78 999.06 999.26 999.42 999.74 1000.02 1000.22 1000.46 1000.70 1000.90 1001.14 1001.42 1001.66 1002.10 1002.30 1002.62 1003.18 1003.54 1004.14 1004.62 1005.18 1005.90 1006.30 1006.70 1006.98 1007.22 1007.62 1007.90 1008.14 1008.34 1008.62 1008.86 1009.06 1009.30 1009.58 1009.98 1010.34 1010.62 1010.66 1010.94 1011.22 1011.38 1011.74 1012.06 1012.38 1012.66 1012.94 1013.18 1013.38 1013.62 1013.94 1014.14 1014.34 1014.58 1014.90 1015.18
998.62 998.66 998.58 998.42 998.34 998.50 998.54 998.30 998.42 998.82 999.06 999.22 999.42 999.50 999.78 1000.06 1000.22 1000.50 1000.74 1000.94 1000.98 1001.62 1002.26 1002.66 1002.94 1003.38 1003.98 1004.50 1005.22 1005.66 1005.94 1006.22 1006.54 1006.86 1007.10 1007.42 1007.70 1007.90 1008.14 1008.38 1008.70 1009.02 1009.30 1009.54 1009.98 1010.14 1010.34 1010.70 1010.98 1011.22 1011.54 1011.78 1012.10 1012.34 1012.66 1012.86 1013.14 1013.42 1013.66 1013.86 1014.14 1014.42 1014.66
998.66 998.54 998.42 998.26 998.34 998.34 998.46 998.66 998.58 998.38 998.54 998.66 998.70 998.90 999.10 999.38 999.66 999.86 1000.22 1000.46 1000.62 1001.02 1001.58 1002.02 1002.50 1002.90 1003.38 1003.74 1004.30 1004.82 1005.14 1005.38 1005.66 1005.94 1006.34 1006.66 1006.90 1007.14 1007.46 1007.74 1007.98 1008.30 1008.58 1008.74 1009.10 1009.54 1009.90 1010.10 1010.46 1010.62 1010.94 1011.26 1011.58 1011.90 1012.14 1012.42 1012.66 1012.98 1013.26 1013.46 1013.70 1013.98 1014.26
998.54 998.54 998.14 998.22 998.38 998.50 998.46 998.18 998.18 998.34 998.34 998.38 998.38 998.34 998.58 998.70 998.86 999.14 999.50 999.94 1000.18 1000.54 1001.02 1001.38 1001.86 1002.42 1002.82 1003.22 1003.70 1004.02 1004.18 1004.38 1004.74 1005.26 1005.54 1005.86 1006.22 1006.54 1006.78 1007.06 1007.38 1007.62 1007.86 1008.14 1008.58 1008.90 1009.18 1009.54 1009.90 1010.14 1010.42 1010.74 1011.06 1011.30 1011.58 1011.94 1012.26 1012.50 1012.74 1013.02 1013.22 1013.50 1013.82
998.42 997.82 997.50 997.74 997.86 998.02 998.10 998.18 998.06 997.98 998.02 998.02 998.06 998.30 998.34 998.50 998.62 998.82 999.06 999.26 999.62 999.90 1000.18 1000.42 1001.14 1001.74 1002.18 1002.66 1003.06 1003.14 1003.34 1003.82 1004.30 1004.62 1005.02 1005.42 1005.78 1006.10 1006.38 1006.62 1006.86 1007.14 1007.38 1007.66 1007.94 1008.14 1008.42 1008.74 1009.14 1009.66 1009.98 1010.22 1010.50 1010.82 1011.06 1011.38 1011.66 1011.82 1012.14 1012.58 1012.86 1012.94 1013.30
997.90 997.50 997.38 997.34 997.26 997.50 997.54 997.50 997.50 997.58 997.62 997.90 997.98 997.98 998.06 998.18 998.30 998.38 998.58 998.82 998.94 999.30 999.42 1000.06 1000.58 1001.02 1001.62 1002.02 1002.18 1002.46 1002.98 1003.42 1003.86 1004.18 1004.54 1005.02 1005.34 1005.58 1005.86 1006.18 1006.46 1006.70 1006.98 1007.18 1007.42 1007.70 1007.98 1008.30 1008.58 1008.90 1009.34 1009.82 1010.06 1010.30 1010.54 1010.78 1010.82 1011.02 1011.50 1011.82 1012.06 1012.42 1012.74
997.06 997.18 997.14 996.98 996.94 997.18 997.22 997.22 997.18 997.34 997.50 997.38 997.26 997.22 997.34 997.38 997.50 997.74 997.94 998.18 998.46 998.74 998.86 999.18 999.86 1000.42 1000.98 1001.18 1001.42 1002.06 1002.50 1003.06 1003.46 1003.78 1004.26 1004.38 1004.78 1005.10 1005.42 1005.78 1006.02 1006.26 1006.50 1006.74 1006.98 1007.30 1007.58 1007.82 1008.18 1008.42 1008.70 1009.10 1009.42 1009.74 1009.90 1010.02 1010.10 1010.54 1011.18 1011.50 1011.74 1011.86 1012.14
996.70 996.30 996.30 996.82 997.10 997.10 997.14 997.06 997.10 997.06 996.94 996.70 996.66 996.82 996.86 997.02 997.10 997.46 997.62 997.54 997.74 997.78 998.14 998.70 999.22 999.82 1000.18 1000.34 1001.06 1001.50 1002.06 1002.50 1002.94 1003.34 1003.54 1003.94 1004.26 1004.54 1004.90 1005.26 1005.58 1005.82 1005.98 1006.26 1006.62 1006.86 1007.02 1007.38 1007.70 1007.98 1008.18 1008.46 1008.74 1009.02 1009.10 1009.30 1009.46 1010.06 1010.66 1011.10 1011.38 1011.54 1011.62
996.50 996.14 996.10 996.54 997.02 997.14 996.74 996.42 996.22 996.34 996.10 995.90 995.94 995.98 995.78 995.86 996.54 996.90 996.74 996.94 996.78 997.14 997.86 998.26 998.54 998.98 999.58 1000.06 1000.54 1001.02 1001.58 1002.10 1002.54 1002.82 1003.14 1003.34 1003.62 1004.06 1004.50 1004.86 1005.18 1005.38 1005.58 1005.82 1005.86 1006.22 1006.62 1006.78 1007.18 1007.46 1007.66 1007.90 1008.22 1008.38 1008.46 1008.70 1008.86 1009.58 1010.14 1010.58 1010.94 1011.30 1011.50
996.38 996.42 996.46 996.54 996.50 996.38 996.18 996.06 995.82 995.42 995.30 995.26 995.02 994.82 994.90 995.30 995.70 995.70 995.86 996.46 997.14 997.74 997.98 998.34 998.50 998.82 999.34 999.78 1000.14 1000.62 1001.06 1001.50 1001.94 1002.26 1002.46 1002.74 1003.14 1003.54 1003.94 1004.26 1004.46 1004.50 1004.74 1005.06 1005.42 1005.74 1005.98 1006.26 1006.54 1006.82 1007.14 1007.26 1007.58 1007.78 1007.78 1008.02 1008.30 1009.02 1009.62 1010.06 1010.50 1010.98 1011.42
996.62 996.74 996.78 996.66 996.50 996.10 995.98 995.98 995.78 995.54 995.26 994.86 994.62 994.74 994.94 995.10 994.90 995.22 995.86 996.06 996.50 996.82 997.54 998.02 998.42 998.90 999.38 999.82 1000.06 1000.42 1000.78 1001.06 1001.34 1001.66 1001.94 1002.22 1002.58 1002.98 1003.30 1003.54 1003.78 1004.06 1004.18 1004.42 1004.78 1005.22 1005.58 1005.78 1006.14 1006.30 1006.42 1006.62 1006.86 1007.18 1007.42 1007.46 1007.90 1008.46 1009.02 1009.50 1010.10 1010.70 1011.22
996.46 996.66 996.62 996.22 996.30 996.26 996.14 995.74 995.54 995.22 994.90 994.34 994.30 994.30 994.30 994.38 994.46 995.06 995.42 995.54 996.22 996.62 997.02 997.54 998.10 998.58 999.02 999.50 999.78 999.98 1000.10 1000.42 1000.82 1001.18 1001.50 1001.90 1002.26 1002.62 1002.90 1003.06 1003.26 1003.50 1003.66 1003.98 1004.18 1004.42 1004.94 1005.30 1005.34 1005.54 1005.78 1006.02 1006.34 1006.66 1007.02 1006.94 1007.46 1007.86 1008.42 1009.02 1009.78 1010.54 1010.94
996.58 996.54 996.42 996.22 995.98 995.86 995.66 995.46 995.34 994.98 994.74 994.42 994.02 993.90 993.94 993.94 994.30 994.74 995.18 995.58 995.78 996.26 996.78 997.26 997.82 998.02 998.22 998.58 998.82 999.10 999.42 999.82 1000.38 1000.86 1001.22 1001.54 1001.98 1002.26 1002.46 1002.70 1002.94 1003.18 1003.34 1003.78 1003.82 1004.02 1004.42 1004.58 1004.70 1004.94 1005.38 1005.70 1005.82 1006.06 1006.34 1006.46 1006.90 1007.38 1007.98 1008.78 1009.58 1010.34 1010.38
996.62 996.50 996.30 996.14 995.86 995.62 995.38 995.10 994.86 994.58 994.58 994.22 993.98 993.54 993.54 993.70 994.02 994.62 995.14 995.38 995.58 996.14 996.62 997.02 997.30 997.30 997.58 997.78 997.82 998.10 998.54 999.02 999.58 1000.22 1000.66 1001.06 1001.34 1001.42 1001.58 1001.74 1002.02 1002.34 1002.34 1002.82 1003.18 1003.54 1003.58 1003.90 1004.42 1004.58 1004.70 1004.98 1005.10 1005.18 1005.78 1005.94 1006.54 1007.10 1007.74 1008.42 1009.10 1009.38 1009.62
996.74 996.46 996.30 996.14 995.94 995.70 995.34 995.06 994.82 994.38 994.14 994.10 994.06 993.66 993.54 993.70 993.98 994.54 995.10 995.30 995.54 995.90 996.46 996.66 996.70 996.78 996.90 997.02 997.26 997.78 998.14 998.58 999.10 999.58 1000.02 1000.38 1000.50 1000.74 1001.14 1001.30 1001.46 1001.66 1002.02 1002.30 1002.62 1002.86 1003.06 1003.50 1003.78 1004.02 1004.14 1004.10 1004.34 1004.82 1005.26 1005.22 1005.82 1006.54 1007.18 1007.82 1008.38 1008.78 1008.86
997.22 996.90 996.42 995.90 995.66 995.46 995.34 994.86 994.42 994.34 994.34 994.42 994.38 993.82 993.70 993.78 994.10 994.58 995.02 995.26 995.38 995.82 996.02 995.90 995.86 995.94 996.30 996.82 997.22 997.46 997.82 998.10 998.50 998.82 999.18 999.50 999.82 1000.18 1000.50 1000.82 1001.30 1001.50 1001.66 1001.86 1002.10 1002.46 1002.70 1002.90 1003.10 1003.42 1003.34 1003.46 1003.90 1004.26 1004.46 1004.62 1005.02 1005.98 1006.50 1007.06 1007.58 1007.86 1007.98
997.26 997.18 996.98 996.42 996.18 995.66 995.38 995.06 994.90 995.06 995.02 994.98 994.58 994.06 993.86 993.94 994.34 994.82 995.02 995.22 995.54 995.62 995.46 995.58 995.82 996.10 996.46 996.74 997.10 997.42 997.78 997.98 998.22 998.54 998.62 998.82 999.30 999.70 1000.14 1000.38 1000.70 1001.02 1001.42 1001.66 1001.74 1002.10 1002.42 1002.62 1002.66 1002.78 1002.90 1002.94 1003.06 1003.34 1003.54 1003.62 1004.02 1005.02 1005.70 1006.22 1006.66 1007.10 1007.30
997.74 997.38 996.86 996.54 996.38 995.86 995.54 995.38 995.46 995.30 995.18 994.94 994.54 994.18 994.06 994.22 994.70 994.94 995.22 995.54 995.82 995.62 995.22 995.18 995.42 995.78 996.22 996.62 996.98 997.18 997.46 997.74 997.94 998.22 998.58 998.82 999.18 999.66 999.90 999.98 1000.26 1000.62 1000.86 1001.06 1001.38 1001.82 1002.02 1002.22 1002.42 1002.50 1002.54 1002.54 1002.54 1002.70 1002.78 1002.86 1003.14 1003.94 1004.98 1005.30 1005.86 1006.18 1006.30
998.22 998.06 997.74 997.26 996.62 995.94 995.62 995.82 995.86 995.82 995.62 995.22 994.90 994.54 994.18 994.30 994.98 995.22 995.38 995.82 996.10 995.62 995.30 995.26 995.38 995.70 996.02 996.30 996.58 996.74 996.90 997.14 997.58 997.98 998.30 998.66 998.82 999.26 999.70 999.82 1000.10 1000.26 1000.50 1000.86 1001.14 1001.46 1001.78 1001.94 1001.98 1002.26 1002.38 1002.38 1002.34 1002.26 1002.26 1002.38 1002.98 1003.42 1004.38 1004.86 1005.06 1005.26 1005.42
998.02 997.90 997.66 997.34 996.86 996.34 995.90 995.94 995.90 995.94 995.90 995.66 995.42 995.18 994.94 994.78 995.38 995.70 996.02 996.58 996.14 995.82 995.54 995.46 995.50 995.74 996.14 996.38 996.54 996.66 996.78 996.90 997.18 997.50 997.82 998.14 998.46 998.86 999.30 999.54 999.62 999.90 1000.10 1000.34 1000.70 1001.14 1001.42 1001.38 1001.58 1001.90 1002.06 1002.10 1002.18 1002.14 1002.14 1002.54 1002.90 1003.66 1004.10 1004.82 1004.86 1004.74 1004.70
998.18 998.06 997.90 997.70 997.26 996.74 996.30 996.22 996.22 996.06 996.06 995.94 995.86 995.78 995.70 995.58 995.94 996.38 996.74 996.66 996.14 996.06 995.86 995.78 995.74 995.94 996.14 996.30 996.42 996.58 996.66 996.78 997.02 997.30 997.50 997.74 998.06 998.62 998.90 999.14 999.30 999.70 999.70 1000.02 1000.34 1000.62 1000.94 1001.02 1001.22 1001.42 1001.42 1001.54 1001.70 1001.62 1001.86 1002.22 1002.70 1003.38 1004.02 1004.50 1005.18 1005.38 1005.26
998.22 997.94 997.62 997.42 997.30 997.06 996.70 996.30 996.14 996.18 996.38 996.30 996.14 996.18 996.14 996.14 996.22 996.66 996.78 996.34 996.18 995.98 995.86 995.78 995.98 996.18 996.30 996.34 996.42 996.50 996.58 996.86 996.94 997.02 997.14 997.42 997.50 997.82 997.98 998.30 998.62 998.90 999.10 999.38 999.66 999.94 1000.22 1000.30 1000.46 1000.66 1000.78 1000.98 1000.90 1001.06 1001.22 1001.62 1002.22 1002.90 1003.38 1004.02 1004.38 1004.86 1005.10
998.38 998.06 997.78 997.70 997.42 997.14 996.98 996.70 996.62 996.66 996.62 996.66 996.46 996.34 996.34 996.34 996.38 996.46 996.42 996.34 996.10 995.98 995.98 996.06 996.14 996.34 996.46 996.62 996.70 996.74 996.82 997.10 997.18 997.26 997.30 997.38 997.42 997.50 997.66 997.86 998.10 998.38 998.66 998.78 999.06 999.26 999.42 999.54 999.82 999.94 1000.02 1000.22 1000.26 1000.50 1000.82 1001.18 1001.54 1001.90 1002.34 1002.70 1003.02 1003.26 1003.82
998.54 998.22 997.86 997.58 997.42 997.22 997.18 997.14 997.02 996.94 996.86 996.90 996.70 996.50 996.50 996.46 996.54 996.46 996.34 996.18 996.10 996.10 996.22 996.38 996.42 996.54 996.70 996.74 996.70 996.82 996.86 997.02 997.22 997.42 997.42 997.38 997.42 997.58 997.66 997.58 997.62 997.94 998.10 998.26 998.42 998.82 998.98 998.94 998.98 999.02 998.98 999.06 999.18 999.82 1000.22 1000.58 1000.90 1001.14 1001.42 1001.90 1002.34 1002.98 1003.54
998.74 998.46 998.18 997.94 997.74 997.50 997.74 997.78 997.70 997.42 997.22 997.18 996.94 996.82 996.70 996.66 996.58 996.46 996.38 996.22 996.02 996.06 996.34 996.66 996.70 996.70 996.78 996.82 996.78 996.98 997.02 996.94 997.02 997.06 997.22 997.34 997.26 997.14 997.06 997.22 997.26 997.22 997.06 996.66 996.70 996.94 997.18 997.50 997.54 997.50 997.58 997.82 998.42 999.10 999.38 999.34 999.58 999.14 999.10 1000.10 1001.18 1002.46 1003.42
998.98 998.70 998.38 997.98 997.74 997.78 998.10 998.26 998.14 997.94 997.62 997.46 997.26 997.14 997.02 996.86 996.70 996.54 996.38 996.26 996.22 996.18 996.50 996.66 996.74 996.86 996.98 996.94 997.06 997.10 997.10 997.14 997.10 997.02 997.06 997.06 997.14 997.18 997.06 996.62 996.74 996.86 997.06 996.90 996.74 996.94 997.10 997.38 997.26 996.90 996.94 997.42 997.26 997.06 997.74 998.06 997.70 998.38 999.86 1000.42 1000.50 1000.10 999.94
999.26 998.94 998.62 998.22 998.06 998.18 998.38 998.42 998.18 997.94 997.90 997.74 997.54 997.46 997.34 997.22 996.98 996.78 996.58 996.50 996.46 996.50 996.62 996.70 996.98 997.10 997.18 997.26 997.38 997.46 997.34 997.34 997.30 997.34 997.38 997.30 997.26 997.14 997.14 996.94 996.62 996.78 996.94 997.02 997.14 997.14 997.26 997.30 997.30 997.38 997.38 997.14 996.98 996.66 996.86 997.34 998.34 999.14 999.54 999.98 1000.02 999.94 999.98
999.22 998.98 998.58 998.34 998.42 998.54 998.58 998.58 998.38 998.14 997.98 997.74 997.62 997.62 997.54 997.46 997.22 997.02 996.78 996.74 996.70 996.62 996.74 996.86 997.06 997.38 997.42 997.38 997.46 997.54 997.46 997.38 997.46 997.46 997.46 997.38 997.30 997.22 997.26 997.26 997.18 996.82 996.82 996.94 996.86 996.82 996.78 996.78 996.82 996.86 996.90 996.94 996.70 996.58 996.86 997.46 997.86 998.22 998.82 999.10 999.38 999.74 1000.54
Thickness
5852 5851 5851 5850 5848 5846 5846 5846 5846 5845 5844 5842 5841 5841 5839 5837 5836 5833 5831 5829 5825 5822 5821 5819 5817 5816 5815 5814 5814 5813 5811 5811 5810 5809 5807 5806 5805 5804 5803 5802 5800 5799 5799 5798 5797 5797 5797 5797 5795 5794 5794 5792 5790 5788 5786 5783 5782 5779 5776 5773 5771 5769 5766
5854 5854 5856 5854 5853 5853 5853 5851 5849 5848 5848 5847 5846 5844 5843 5842 5841 5839 5836 5833 5830 5827 5826 5824 5821 5819 5817 5816 5815 5814 5813 5812 5812 5810 5808 5808 5807 5806 5805 5803 5802 5801 5801 5800 5800 5800 5798 5797 5796 5795 5794 5793 5791 5789 5787 5785 5783 5780 5778 5774 5771 5768 5767
5859 5860 5861 5860 5861 5861 5860 5856 5853 5852 5851 5851 5850 5849 5848 5848 5847 5845 5841 5837 5834 5830 5829 5827 5825 5823 5821 5818 5817 5816 5815 5813 5813 5812 5810 5809 5808 5807 5806 5805 5803 5803 5802 5802 5801 5800 5799 5798 5797 5796 5794 5793 5791 5790 5788 5786 5784 5781 5779 5775 5772 5770 5767
5863 5867 5867 5866 5868 5866 5864 5862 5859 5858 5857 5855 5856 5855 5854 5854 5852 5850 5846 5842 5838 5834 5833 5832 5829 5827 5824 5821 5819 5817 5817 5815 5815 5814 5812 5811 5810 5808 5807 5805 5805 5804 5802 5802 5802 5801 5800 5798 5796 5795 5795 5793 5792 5791 5789 5788 5786 5783 5780 5777 5773 5772 5770
5867 5869 5868 5868 5870 5868 5867 5867 5866 5866 5864 5863 5862 5860 5859 5858 5855 5851 5849 5846 5843 5840 5839 5836 5833 5830 5827 5825 5823 5821 5820 5818 5817 5816 5814 5813 5811 5810 5808 5807 5806 5805 5804 5803 5802 5801 5800 5798 5797 5796 5795 5794 5793 5791 5790 5788 5787 5784 5781 5778 5774 5772 5771
5872 5870 5870 5873 5873 5873 5874 5874 5874 5873 5870 5869 5867 5865 5864 5861 5856 5854 5852 5849 5846 5844 5841 5837 5835 5833 5831 5829 5827 5825 5823 5821 5820 5818 5816 5815 5813 5811 5810 5809 5808 5806 5805 5804 5803 5802 5800 5799 5798 5797 5796 5795 5794 5793 5791 5789 5788 5785 5782 5779 5776 5775 5773
5877 5876 5876 5877 5878 5878 5879 5878 5878 5877 5874 5872 5870 5867 5865 5862 5858 5857 5854 5852 5851 5847 5843 5841 5839 5837 5834 5833 5830 5827 5825 5823 5821 5820 5818 5817 5815 5813 5812 5811 5810 5809 5807 5805 5804 5804 5802 5800 5800 5799 5798 5796 5795 5793 5792 5790 5788 5786 5783 5780 5777 5776 5775
5881 5880 5880 5882 5882 5883 5882 5880 5880 5879 5875 5872 5868 5866 5865 5863 5861 5858 5856 5857 5856 5851 5848 5846 5843 5840 5838 5836 5833 5831 5829 5826 5825 5822 5821 5819 5817 5815 5814 5812 5811 5810 5808 5806 5805 5805 5803 5802 5802 5801 5799 5798 5796 5795 5793 5791 5789 5787 5785 5781 5778 5777 5776
5881 5880 5881 5882 5883 5883 5883 5882 5881 5879 5875 5871 5869 5868 5866 5865 5864 5862 5862 5861 5858 5855 5854 5852 5849 5845 5842 5838 5836 5834 5831 5829 5827 5826 5824 5821 5819 5818 5816 5814 5813 5811 5809 5807 5806 5806 5805 5805 5804 5802 5800 5798 5797 5796 5794 5791 5790 5788 5786 5783 5780 5778 5777
5875 5875 5877 5879 5880 5882 5882 5881 5880 5877 5874 5872 5871 5869 5868 5867 5867 5866 5865 5863 5861 5860 5859 5857 5853 5849 5845 5841 5838 5836 5833 5831 5830 5828 5826 5824 5822 5821 5819 5817 5815 5813 5811 5809 5808 5808 5807 5807 5806 5803 5801 5799 5797 5796 5794 5792 5790 5788 5787 5785 5782 5780 5779
5868 5869 5872 5873 5875 5878 5879 5879 5880 5878 5876 5875 5873 5872 5871 5870 5869 5869 5868 5866 5866 5865 5861 5858 5856 5852 5849 5845 5841 5837 5835 5835 5833 5831 5829 5827 5825 5823 5822 5821 5819 5817 5814 5811 5810 5810 5809 5807 5806 5804 5802 5800 5798 5796 5794 5793 5791 5789 5787 5786 5784 5783 5781
5863 5865 5866 5869 5872 5873 5875 5878 5879 5879 5878 5877 5877 5876 5874 5872 5872 5872 5871 5871 5871 5868 5862 5860 5858 5855 5853 5849 5844 5841 5840 5838 5837 5834 5832 5830 5829 5827 5825 5824 5822 5820 5818 5815 5813 5811 5810 5809 5807 5805 5803 5801 5799 5797 5795 5794 5792 5790 5788 5787 5786 5784 5783
5860 5863 5865 5867 5868 5869 5871 5874 5877 5879 5879 5878 5880 5880 5878 5877 5876 5874 5873 5873 5873 5870 5865 5862 5860 5857 5855 5853 5849 5846 5845 5844 5842 5840 5837 5835 5833 5831 5829 5828 5826 5824 5822 5820 5817 5814 5812 5810 5808 5806 5804 5801 5800 5797 5796 5794 5792 5791 5789 5788 5787 5785 5784
5857 5861 5864 5867 5866 5866 5869 5871 5875 5878 5878 5879 5881 5881 5881 5880 5879 5878 5876 5875 5873 5870 5868 5866 5863 5860 5858 5856 5852 5851 5851 5850 5847 5844 5841 5839 5837 5834 5832 5831 5829 5827 5825 5823 5821 5818 5816 5813 5810 5808 5805 5803 5800 5799 5797 5795 5793 5792 5790 5789 5788 5787 5785
5856 5862 5865 5867 5866 5867 5869 5871 5875 5877 5878 5880 5879 5879 5880 5880 5880 5880 5878 5877 5875 5874 5873 5870 5866 5863 5860 5858 5857 5856 5855 5852 5848 5846 5844 5841 5838 5836 5835 5832 5831 5829 5828 5826 5824 5822 5819 5817 5813 5810 5807 5804 5802 5800 5798 5797 5796 5795 5793 5790 5789 5788 5786
5858 5863 5865 5867 5869 5870 5871 5873 5875 5876 5878 5879 5879 5880 5880 5881 5881 5881 5880 5881 5879 5878 5877 5874 5869 5866 5863 5860 5860 5859 5855 5852 5849 5847 5845 5842 5841 5839 5836 5834 5832 5831 5829 5828 5826 5824 5821 5819 5817 5813 5809 5806 5804 5802 5800 5800 5800 5799 5795 5792 5791 5789 5787
5860 5863 5864 5867 5868 5869 5870 5872 5874 5875 5877 5880 5882 5883 5883 5884 5884 5884 5883 5882 5881 5880 5880 5876 5872 5868 5865 5865 5864 5860 5856 5854 5851 5849 5847 5845 5843 5841 5838 5836 5834 5833 5831 5830 5828 5825 5824 5821 5818 5815 5812 5809 5806 5804 5803 5803 5804 5800 5796 5793 5791 5790 5789
5862 5865 5867 5865 5863 5865 5868 5870 5873 5874 5878 5882 5884 5884 5886 5887 5886 5884 5884 5886 5886 5886 5882 5878 5875 5871 5869 5868 5865 5861 5858 5855 5852 5850 5849 5848 5845 5843 5840 5837 5835 5834 5832 5831 5829 5827 5825 5823 5820 5817 5815 5812 5809 5807 5807 5807 5805 5801 5797 5793 5791 5789 5789
5861 5865 5867 5864 5862 5864 5867 5872 5875 5878 5881 5885 5887 5889 5892 5892 5888 5888 5890 5889 5888 5886 5882 5879 5878 5875 5872 5869 5866 5863 5860 5856 5853 5852 5850 5850 5847 5844 5841 5838 5836 5836 5835 5833 5831 5829 5827 5825 5822 5819 5817 5814 5812 5810 5810 5809 5807 5803 5798 5794 5791 5788 5787
5858 5860 5861 5861 5862 5865 5869 5872 5876 5880 5884 5887 5891 5894 5895 5894 5893 5894 5893 5889 5885 5882 5878 5877 5876 5874 5871 5868 5866 5864 5861 5857 5855 5853 5852 5851 5849 5845 5843 5840 5839 5839 5838 5835 5832 5829 5827 5826 5823 5821 5819 5817 5815 5812 5812 5811 5809 5804 5799 5795 5792 5786 5783
5854 5854 5855 5858 5862 5865 5868 5870 5874 5879 5883 5888 5892 5894 5893 5895 5897 5895 5892 5889 5885 5883 5880 5876 5874 5871 5868 5866 5864 5862 5861 5859 5857 5856 5854 5852 5849 5847 5844 5843 5842 5841 5840 5837 5834 5831 5829 5826 5825 5823 5822 5820 5817 5814 5812 5811 5809 5804 5801 5797 5792 5785 5780
5850 5851 5853 5857 5860 5862 5865 5869 5873 5877 5882 5887 5891 5892 5894 5897 5897 5893 5891 5890 5887 5884 5881 5877 5873 5871 5868 5866 5865 5864 5863 5861 5859 5856 5854 5851 5848 5846 5844 5843 5843 5841 5840 5838 5836 5833 5829 5826 5827 5826 5823 5821 5819 5815 5813 5812 5809 5806 5802 5797 5790 5782 5778
5845 5847 5851 5856 5858 5861 5865 5868 5873 5877 5880 5885 5889 5893 5895 5896 5895 5892 5890 5889 5887 5883 5880 5877 5874 5873 5872 5870 5870 5869 5867 5863 5860 5856 5854 5851 5848 5846 5845 5845 5843 5841 5840 5838 5835 5834 5831 5828 5827 5826 5823 5820 5819 5816 5814 5812 5809 5805 5801 5794 5786 5780 5778
5840 5843 5847 5851 5855 5860 5864 5867 5872 5876 5879 5883 5887 5891 5894 5894 5893 5890 5887 5887 5886 5883 5878 5876 5875 5875 5876 5876 5875 5873 5870 5866 5862 5858 5854 5852 5850 5850 5848 5847 5845 5843 5842 5839 5836 5835 5833 5829 5826 5825 5823 5822 5821 5819 5815 5812 5808 5804 5799 5792 5785 5781 5779
5834 5838 5842 5847 5852 5856 5860 5864 5869 5875 5878 5880 5883 5887 5891 5890 5890 5887 5884 5885 5884 5880 5878 5878 5878 5879 5879 5878 5876 5873 5869 5867 5863 5859 5857 5855 5854 5852 5850 5847 5845 5844 5842 5839 5837 5835 5833 5830 5826 5824 5824 5824 5822 5818 5815 5813 5809 5804 5798 5792 5786 5783 5781
5827 5830 5836 5843 5847 5852 5857 5861 5865 5869 5872 5873 5876 5882 5885 5886 5885 5882 5880 5881 5879 5878 5879 5880 5881 5880 5877 5875 5872 5869 5868 5866 5863 5861 5860 5858 5856 5853 5849 5846 5844 5842 5840 5839 5837 5834 5831 5830 5828 5826 5826 5825 5822 5818 5815 5815 5812 5806 5800 5795 5788 5785 5783
5821 5824 5830 5835 5840 5846 5851 5855 5858 5860 5862 5866 5871 5877 5880 5880 5879 5876 5876 5875 5875 5875 5879 5879 5878 5876 5872 5870 5868 5866 5865 5864 5862 5861 5860 5858 5855 5851 5848 5846 5844 5841 5839 5837 5836 5833 5830 5829 5828 5826 5826 5826 5823 5820 5818 5818 5815 5809 5803 5798 5792 5787 5785
5813 5817 5823 5828 5834 5840 5845 5847 5850 5852 5855 5860 5866 5871 5875 5874 5872 5870 5870 5869 5867 5871 5875 5876 5875 5873 5870 5868 5866 5864 5864 5862 5860 5858 5856 5853 5851 5847 5845 5844 5842 5839 5838 5836 5833 5831 5827 5826 5826 5824 5824 5824 5822 5821 5821 5820 5817 5812 5805 5800 5796 5791 5788
5804 5808 5815 5820 5826 5834 5839 5840 5842 5844 5847 5853 5858 5864 5868 5868 5865 5864 5863 5860 5860 5865 5870 5872 5872 5870 5867 5865 5864 5863 5863 5861 5858 5856 5852 5849 5848 5845 5842 5841 5839 5837 5835 5832 5830 5827 5824 5824 5823 5821 5820 5820 5819 5820 5821 5818 5814 5809 5802 5798 5796 5794 5792
5798 5801 5806 5812 5819 5828 5833 5834 5836 5838 5841 5845 5849 5853 5858 5859 5857 5855 5853 5852 5854 5859 5863 5865 5866 5864 5862 5861 5860 5859 5859 5858 5856 5853 5850 5848 5846 5842 5839 5838 5836 5834 5832 5830 5828 5824 5821 5821 5820 5817 5817 5816 5815 5816 5816 5813 5808 5804 5798 5794 5791 5791 5791
5792 5796 5801 5805 5812 5819 5825 5829 5832 5833 5835 5838 5841 5843 5846 5849 5847 5845 5844 5846 5850 5854 5856 5857 5859 5857 5856 5856 5855 5854 5855 5854 5852 5850 5849 5847 5844 5840 5838 5836 5834 5832 5830 5829 5825 5821 5819 5819 5817 5815 5814 5813 5813 5813 5811 5808 5803 5798 5794 5789 5784 5781 5781
5787 5792 5796 5800 5805 5811 5817 5822 5826 5827 5828 5830 5833 5835 5837 5839 5839 5838 5839 5842 5846 5848 5850 5852 5852 5851 5850 5850 5849 5849 5849 5847 5847 5847 5845 5844 5843 5841 5838 5836 5833 5831 5829 5827 5825 5822 5820 5819 5817 5815 5813 5812 5812 5811 5808 5805 5801 5798 5793 5788 5783 5779 5775
5780 5786 5790 5795 5799 5803 5808 5813 5816 5819 5821 5822 5826 5829 5830 5831 5833 5833 5835 5839 5841 5842 5844 5844 5844 5844 5843 5843 5843 5842 5842 5840 5839 5839 5839 5839 5838 5837 5836 5835 5833 5829 5826 5825 5824 5821 5819 5819 5816 5815 5814 5813 5812 5809 5805 5801 5799 5797 5794 5790 5788 5785 5778
5773 5779 5784 5789 5793 5797 5801 5803 5806 5811 5813 5815 5819 5822 5824 5825 5827 5828 5831 5833 5836 5837 5836 5835 5835 5835 5835 5835 5836 5836 5835 5835 5833 5833 5832 5833 5833 5832 5831 5831 5829 5827 5826 5826 5825 5822 5820 5819 5818 5817 5818 5817 5813 5807 5802 5799 5799 5800 5799 5794 5787 5779 5771
5766 5771 5776 5781 5786 5789 5790 5792 5796 5801 5804 5808 5812 5814 5817 5819 5820 5822 5825 5827 5829 5830 5829 5827 5828 5828 5828 5828 5828 5828 5829 5829 5829 5828 5828 5827 5828 5827 5828 5829 5828 5826 5827 5829 5829 5826 5824 5822 5821 5822 5822 5818 5813 5807 5801 5800 5804 5806 5802 5794 5786 5779 5772
5757 5763 5769 5774 5778 5781 5781 5782 5786 5791 5795 5800 5804 5806 5809 5811 5813 5816 5818 5820 5822 5823 5822 5821 5820 5820 5819 5820 5820 5820 5821 5821 5822 5822 5822 5821 5821 5822 5823 5824 5824 5823 5821 5823 5823 5822 5819 5817 5817 5819 5817 5813 5813 5813 5809 5807 5807 5802 5793 5785 5782 5783 5781
5750 5755 5761 5766 5770 5772 5772 5773 5778 5783 5787 5792 5795 5798 5800 5803 5805 5809 5811 5813 5814 5814 5814 5814 5812 5811 5811 5811 5811 5811 5813 5813 5813 5813 5813 5813 5814 5814 5814 5815 5816 5815 5814 5813 5812 5812 5811 5809 5808 5809 5807 5805 5808 5811 5809 5804 5800 5793 5786 5780 5779 5778 5774
5744 5748 5753 5759 5762 5763 5764 5767 5771 5776 5780 5784 5787 5790 5792 5794 5797 5800 5803 5804 5806 5806 5806 5806 5804 5803 5803 5803 5802 5802 5803 5804 5804 5804 5804 5805 5805 5806 5805 5805 5805 5806 5807 5806 5806 5805 5806 5805 5804 5802 5801 5800 5801 5802 5799 5795 5791 5788 5786 5781 5774 5768 5761